Trinidad, Colorado, United States (81082)
Lat: 37.17N, Lon: 104.5W
Wx Zone: COZ088
Local Info
Past Weather Observations for Thursday, July 2, 2015

NOTE: This archive is for the closest National Weather Service station to Trinidad. Information may differ from the station used for current weather conditions.

Click here for Long-term Archive

Time Weather Temperature Dewpoint Humidity Pressure Winds Precip Visibility
23:54
Partly Cloudy
63°F / 17°C 59°F / 15°C 88% 30.24 in
(1024 mb)
NW 8.1 mph
(NW 13 kph)
- 10SM
22:54
Overcast
63°F / 17°C 57°F / 14°C 83% 30.24 in
(1024 mb)
WNW 5.8 mph
(WNW 9 kph)
- 10SM
21:54
Clear
64°F / 18°C 55°F / 13°C 73% 30.24 in
(1024 mb)
SSE 4.6 mph
(SSE 7 kph)
- 10SM
20:54
Clear
66°F / 19°C 57°F / 14°C 73% 30.21 in
(1023 mb)
E 3.5 mph
(E 6 kph)
- 10SM
19:54
Clear
70°F / 21°C 57°F / 14°C 64% 30.21 in
(1023 mb)
Calm - 10SM
18:54
Clear
70°F / 21°C 59°F / 15°C 69% 30.21 in
(1023 mb)
NE 3.5 mph
(NE 6 kph)
- 10SM
17:54
Clear
73°F / 23°C 57°F / 14°C 57% 30.21 in
(1023 mb)
NNE 3.5 mph
(NNE 6 kph)
- 10SM
16:54
Clear
75°F / 24°C 57°F / 14°C 54% 30.21 in
(1023 mb)
NE 5.8 mph
(NE 9 kph)
- 10SM
15:54
Partly Cloudy
77°F / 25°C 57°F / 14°C 51% 30.24 in
(1024 mb)
NE 8.1 mph
(NE 13 kph)
- 10SM
14:54
Mostly Cloudy
77°F / 25°C 57°F / 14°C 51% 30.21 in
(1023 mb)
NE 9.2 mph
(NE 15 kph)
- 10SM
13:54
Partly Cloudy
75°F / 24°C 55°F / 13°C 50% 30.21 in
(1023 mb)
Calm - 10SM
12:54
Mostly Cloudy
73°F / 23°C 57°F / 14°C 57% 30.24 in
(1024 mb)
NNE 9.2 mph
(NNE 15 kph)
- 10SM
11:54
Partly Cloudy
72°F / 22°C 57°F / 14°C 61% 30.27 in
(1025 mb)
NNW 10.4 mph
(NNW 17 kph)
- 10SM
11:12
Overcast
70°F / 21°C 59°F / 15°C 69% 30.27 in
(1025 mb)
N 11.5 mph
(N 19 kph)
- 10SM
10:54
Overcast
66°F / 19°C 57°F / 14°C 73% 30.27 in
(1025 mb)
NNE 13.8 mph
(NNE 22 kph)
- 10SM
10:13
Overcast
66°F / 19°C 61°F / 16°C 83% 30.27 in
(1025 mb)
N 15 mph
(N 24 kph)
- 10SM
09:54
Overcast
68°F / 20°C 59°F / 15°C 73% 30.27 in
(1025 mb)
NNE 10.4 mph
(NNE 17 kph)
- 10SM
09:36
Overcast
68°F / 20°C 59°F / 15°C 73% 30.27 in
(1025 mb)
N 11.5 mph
(N 19 kph)
- 10SM
09:17
Mostly Cloudy
68°F / 20°C 57°F / 14°C 69% 30.27 in
(1025 mb)
N 12.7 mph
(N 20 kph)
- 10SM
08:54
Clear
70°F / 21°C 61°F / 16°C 73% 30.24 in
(1024 mb)
NNE 15 mph
(NNE 24 kph)
- 10SM
07:54
Clear
72°F / 22°C 61°F / 16°C 69% 30.21 in
(1023 mb)
NNW 12.7 mph
(NNW 20 kph)
- 10SM
06:54
Clear
66°F / 19°C 57°F / 14°C 73% 30.15 in
(1021 mb)
SSW 3.5 mph
(SSW 6 kph)
- 10SM
05:54
Clear
63°F / 17°C 55°F / 13°C 77% 30.15 in
(1021 mb)
SSW 10.4 mph
(SSW 17 kph)
- 10SM
04:54
Clear
61°F / 16°C 55°F / 13°C 83% 30.15 in
(1021 mb)
SSW 5.8 mph
(SSW 9 kph)
- 10SM
03:54
Clear
61°F / 16°C 55°F / 13°C 83% 30.15 in
(1021 mb)
SSW 6.9 mph
(SSW 11 kph)
- 10SM
02:54
Clear
61°F / 16°C 57°F / 14°C 88% 30.15 in
(1021 mb)
SSW 8.1 mph
(SSW 13 kph)
- 10SM
01:54
Mostly Cloudy
61°F / 16°C 57°F / 14°C 88% 30.18 in
(1022 mb)
SW 3.5 mph
(SW 6 kph)
- 10SM
00:54
Mostly Cloudy
63°F / 17°C 59°F / 15°C 88% 30.21 in
(1023 mb)
W 5.8 mph
(W 9 kph)
- 10SM
Time Weather Temperature Dewpoint Humidity Pressure Winds Precip Visibility


Weather for websites

WeatherForYou.com, LLC is not responsible for any damages or problems caused by this service. Current weather conditions are obtained from the closest station including government and personal stations which may have varying degrees of accuracy. Weather forecasts are derived from the NOAA NDFD. Like all things, this site belongs to Jesus Christ... He just trusts us to maintain it. If you have any questions or comments email webmaster@weatherforyou.com

Copyright © 2015, WeatherForYou.com LLC. All rights reserved.